Location: Unspecified
(44.0704°N, 88.6889°W)
Time: 11:10:53
(UTC+02:00)

Transit 2A - Pass Details

Date: 26 June 2019
Orbit: 594 x 965 km, 66.7° (Epoch: 17 July)

Event Time Altitude Azimuth Distance (km) Brightness Sun altitude
Rises 06:49:30 0° 197° (SSW) 3,610 - -20.8°
Reaches altitude 10° 06:52:04 10° 194° (SSW) 2,685 - -20.9°
Exits shadow 06:56:04 39° 176° (S) 1,407 6.8 -21.1°
Maximum altitude 06:58:17 60° 116° (ESE) 1,092 6.5 -21.2°
Drops below altitude 10° 07:04:27 10° 38° (NE) 2,657 9.3 -21.5°
Sets 07:06:58 0° 35° (NE) 3,570 10.1 -21.6°
